Location: Blanot
(47.1713°N, 4.2340°E)
Time: 13:56:54
(UTC+00:00)

X-37B - Pass Details

Date: 15 March 2021
Orbit: 380 x 394 km, 45.0° (Epoch: 07 April)

Event Time Altitude Azimuth Distance (km) Brightness Sun altitude
Rises 20:10:03 0° 265° (W) 2,274 5.4 -24.1°
Reaches altitude 10° 20:12:08 10° 261° (W) 1,421 4.1 -24.4°
Enters shadow 20:13:29 23° 255° (WSW) 893 2.9 -24.6°
